Mobridge, SD

6:57 AM CDT on March 29, 2017 (GMT -0500)
Mobridge Municipal

Weather History for KMBG - August, 2014

Change the Weather History Date:

Saturday, August 9, 2014

  Actual Average Record
Temperature  
Mean Temperature 73 °F 73 °F  
Max Temperature 81 °F 87 °F 110 °F (1947)
Min Temperature 65 °F 59 °F 42 °F (1927)
Degree Days  
Heating Degree Days 0 0  
Month to date heating degree days 2 0  
Since 1 June heating degree days 100 87  
Since 1 July heating degree days 25 12  
Cooling Degree Days 8 8  
Month to date cooling degree days 49 77  
Year to date cooling degree days 314 441  
Since 1 June cooling degree days 264 425  
Growing Degree Days 24 (Base 50)    
Moisture  
Dew Point 66 °F    
Average Humidity 79    
Maximum Humidity 100    
Minimum Humidity 58    
Precipitation  
Precipitation T in 0.08 in 2.23 in (2015)
Month to date precipitation 0.74 0.69  
Year to date precipitation 15.30 12.57  
Sea Level Pressure  
Sea Level Pressure 29.96 in    
Wind  
Wind Speed 6 mph (East)    
Max Wind Speed 12 mph    
Max Gust Speed 16 mph    
Visibility 8 miles    
Events      
T = Trace of Precipitation, MM = Missing Value Source: NWS Daily Summary

Daily Weather History Graph

Daily Weather History Graph

Search for Another Location

Airport or City:

Trip Planner

Search our weather history database for the weather conditions in past years. The results will help you decide how hot, cold, wet, or windy it might be!

Date:

Astronomy

Aug. 09, 2014 Rise Set
Actual Time 6:34 AM CDT 8:58 PM CDT
Civil Twilight 6:01 AM CDT 9:31 PM CDT
Nautical Twilight 5:20 AM CDT 10:12 PM CDT
Astronomical Twilight 4:33 AM CDT 10:58 PM CDT
Moon 7:59 PM CDT (8/9) 5:17 AM CDT (8/9)
Length of Visible Light 15h 29m
Length of Day
14h 23m
Waxing Gibbous, 98% of the Moon is Illuminated
Aug 9
Waxing Gibbous
Aug 10
Full
Aug 17
Last Quarter
Aug 25
New
Sep 2
First Quarter

Hourly Weather History & Observations

Time (CDT) Temp. Heat Index Dew Point Humidity Pressure Visibility Wind Dir Wind Speed Gust Speed Precip Events Conditions
12:18 AM 66.0 °F - 66.0 °F 100% 29.98 in 10.0 mi East 8.1 mph - N/A   Mostly Cloudy
12:44 AM 66.9 °F - 66.0 °F 97% 29.97 in 10.0 mi ESE 6.9 mph - N/A   Overcast
12:52 AM 66.9 °F - 66.0 °F 97% 29.95 in 10.0 mi ESE 8.1 mph - N/A   Overcast
1:27 AM 66.9 °F - 66.0 °F 97% 29.97 in 10.0 mi ESE 5.8 mph - N/A   Overcast
1:52 AM 68.0 °F - 66.0 °F 93% 29.94 in 10.0 mi ESE 6.9 mph - N/A   Overcast
2:05 AM 66.9 °F - 66.0 °F 97% 29.97 in 10.0 mi ESE 6.9 mph - N/A   Overcast
2:52 AM 66.9 °F - 66.0 °F 97% 29.94 in 10.0 mi ESE 6.9 mph - N/A   Overcast
3:38 AM 66.9 °F - 66.0 °F 97% 29.98 in 10.0 mi East 6.9 mph - N/A   Overcast
3:52 AM 66.9 °F - 66.0 °F 97% 29.95 in 9.0 mi East 5.8 mph - N/A   Overcast
4:52 AM 66.0 °F - 64.9 °F 96% 29.94 in 7.0 mi East 5.8 mph - N/A   Partly Cloudy
5:05 AM 66.9 °F - 66.0 °F 97% 29.96 in 7.0 mi East 4.6 mph - N/A   Mostly Cloudy
5:21 AM 66.9 °F - 66.0 °F 97% 29.96 in 7.0 mi East 4.6 mph - N/A   Overcast
5:31 AM 66.9 °F - 66.0 °F 97% 29.96 in 7.0 mi East 5.8 mph - N/A   Overcast
5:52 AM 66.9 °F - 66.0 °F 97% 29.94 in 6.0 mi East 6.9 mph - N/A   Overcast
6:29 AM 66.2 °F - 66.2 °F 100% 29.96 in 6.0 mi East 5.8 mph - N/A   Overcast
6:52 AM 66.9 °F - 66.0 °F 97% 29.94 in 5.0 mi ENE 6.9 mph - N/A   Overcast
7:11 AM 66.9 °F - 66.0 °F 97% 29.97 in 5.0 mi East 6.9 mph - N/A   Overcast
7:52 AM 66.9 °F - 66.0 °F 97% 29.95 in 3.0 mi East 9.2 mph - N/A   Overcast
8:09 AM 66.9 °F - 66.0 °F 97% 29.98 in 2.5 mi East 9.2 mph - N/A   Overcast
8:19 AM 66.9 °F - 66.9 °F 100% 29.98 in 1.5 mi East 8.1 mph - N/A   Overcast
8:26 AM 66.9 °F - 66.9 °F 100% 29.98 in 1.8 mi East 8.1 mph - N/A   Overcast
8:30 AM 66.9 °F - 66.9 °F 100% 29.98 in 2.0 mi East 9.2 mph - N/A   Overcast
8:38 AM 66.9 °F - 66.0 °F 97% 29.98 in 2.5 mi East 10.4 mph - N/A   Overcast
8:52 AM 66.9 °F - 66.0 °F 97% 29.96 in 2.5 mi East 9.2 mph - N/A   Overcast
8:57 AM 66.9 °F - 66.0 °F 97% 29.97 in 3.0 mi East 9.2 mph - N/A   Overcast
9:24 AM 69.1 °F - 66.9 °F 93% 29.97 in 6.0 mi East 10.4 mph - N/A   Overcast
9:52 AM 70.0 °F - 66.0 °F 87% 29.95 in 9.0 mi East 9.2 mph - N/A   Mostly Cloudy
10:52 AM 71.1 °F - 66.0 °F 84% 29.96 in 10.0 mi Calm Calm - N/A   Overcast
11:52 AM 71.1 °F - 66.9 °F 87% 29.98 in 10.0 mi SE 4.6 mph - N/A   Overcast
12:52 PM 70.0 °F - 66.0 °F 87% 29.98 in 10.0 mi NE 8.1 mph - N/A   Overcast
1:52 PM 72.0 °F - 66.9 °F 84% 29.97 in 10.0 mi East 9.2 mph - 0.00 in   Overcast
2:52 PM 75.9 °F - 66.9 °F 74% 29.95 in 10.0 mi ESE 8.1 mph - N/A   Scattered Clouds
3:52 PM 78.1 °F - 64.9 °F 64% 29.95 in 10.0 mi Variable 3.5 mph - N/A   Partly Cloudy
4:52 PM 79.0 °F - 66.0 °F 64% 29.94 in 10.0 mi East 4.6 mph - N/A   Mostly Cloudy
5:52 PM 81.0 °F 82.7 °F 64.9 °F 58% 29.93 in 10.0 mi NNE 4.6 mph - N/A   Clear
6:52 PM 80.1 °F 82.1 °F 66.0 °F 62% 29.95 in 10.0 mi NE 4.6 mph - N/A   Clear
7:52 PM 78.1 °F - 64.9 °F 64% 29.94 in 10.0 mi North 4.6 mph - N/A   Clear
8:52 PM 70.0 °F - 66.0 °F 87% 29.96 in 10.0 mi NE 8.1 mph - N/A   Clear
11:52 PM 68.0 °F - 64.0 °F 87% 29.99 in 10.0 mi ENE 10.4 mph - N/A   Clear